Weather History for Penn Yan, NY

Change the Weather History Date:

Wednesday, July 10, 2013

  Actual Average (KITH) Record (KITH)
Temperature  
Mean Temperature 78 °F -  
Max Temperature 86 °F 80 °F 102 °F (1936)
Min Temperature 69 °F 57 °F 42 °F (1953)
Cooling Degree Days 12    
Growing Degree Days 28 (Base 50)    
Moisture  
Dew Point 68 °F    
Average Humidity 79    
Maximum Humidity 91    
Minimum Humidity 59    
Precipitation  
Precipitation 0.82 in - - ()
Sea Level Pressure  
Sea Level Pressure 29.83 in    
Wind  
Wind Speed 10 mph (SW)    
Max Wind Speed 25 mph    
Max Gust Speed 44 mph    
Visibility 7 miles    
Events Fog , Rain , Thunderstorm    
Averages and records for this station are not official NWS values.
T = Trace of Precipitation, MM = Missing Value Source: NWS Daily Summary

Daily Weather History Graph

Daily Weather History Graph

Search for Another Location

Airport:

Trip Planner

Search our weather history database for the weather conditions in past years. The results will help you decide how hot, cold, wet, or windy it might be!

Date:

Astronomy

Jul. 10, 2013 Rise Set
Actual Time 5:40 AM EDT 8:46 PM EDT
Civil Twilight 5:05 AM EDT 9:20 PM EDT
Nautical Twilight 4:21 AM EDT 10:04 PM EDT
Astronomical Twilight 3:29 AM EDT 10:56 PM EDT
Moon 8:03 AM EDT (7/10) 9:50 PM EDT (7/10)
Length of Visible Light 16h 15m
Length of Day
15h 06m
Waxing Crescent, 5% of the Moon is Illuminated
Jul 10
Waxing Crescent
Jul 15
First Quarter
Jul 22
Full
Jul 29
Last Quarter
Aug 6
New

Hourly Weather History & Observations

Time (EDT) Temp. Heat Index Dew Point Humidity Pressure Visibility Wind Dir Wind Speed Gust Speed Precip Events Conditions
12:53 AM 73.0 °F - 69.1 °F 87% 29.93 in 5.0 mi SSW 10.4 mph - N/A   Clear
1:53 AM 72.0 °F - 68.0 °F 87% 29.91 in 5.0 mi SSW 9.2 mph - N/A   Clear
2:53 AM 72.0 °F - 68.0 °F 87% 29.89 in 4.0 mi SSW 9.2 mph - N/A   Clear
3:53 AM 72.0 °F - 69.1 °F 91% 29.88 in 4.0 mi SSW 5.8 mph - N/A   Clear
4:53 AM 72.0 °F - 69.1 °F 91% 29.88 in 4.0 mi SSW 9.2 mph - N/A   Partly Cloudy
5:53 AM 73.0 °F - 69.1 °F 87% 29.87 in 3.0 mi SSW 10.4 mph - N/A   Scattered Clouds
6:53 AM 73.9 °F - 69.1 °F 85% 29.86 in 4.0 mi SSW 8.1 mph - N/A   Haze
7:53 AM 73.9 °F - 69.1 °F 85% 29.85 in 5.0 mi SSW 9.2 mph - N/A   Haze
8:53 AM 73.0 °F - 69.1 °F 87% 29.86 in 3.0 mi South 9.2 mph - 0.02 in Rain Rain
9:53 AM 73.9 °F - 70.0 °F 87% 29.86 in 8.0 mi SSW 9.2 mph - 0.00 in   Overcast
10:53 AM 75.0 °F - 70.0 °F 84% 29.85 in 10.0 mi SSW 10.4 mph - 0.00 in   Partly Cloudy
11:53 AM 78.1 °F - 70.0 °F 76% 29.83 in 10.0 mi South 8.1 mph - N/A   Partly Cloudy
12:53 PM 79.0 °F - 69.1 °F 72% 29.83 in 10.0 mi SW 9.2 mph - N/A   Clear
1:53 PM 82.9 °F 87.5 °F 71.1 °F 67% 29.81 in 10.0 mi SW 10.4 mph 18.4 mph N/A   Partly Cloudy
2:53 PM 84.0 °F 88.4 °F 70.0 °F 63% 29.78 in 10.0 mi WSW 10.4 mph - N/A   Scattered Clouds
3:53 PM 84.0 °F 89.0 °F 71.1 °F 65% 29.77 in 10.0 mi SW 8.1 mph - N/A   Partly Cloudy
4:53 PM 86.0 °F 90.7 °F 70.0 °F 59% 29.75 in 10.0 mi Variable 6.9 mph - N/A   Mostly Cloudy
5:53 PM 84.9 °F 88.8 °F 69.1 °F 59% 29.76 in 10.0 mi WSW 5.8 mph - N/A   Clear
6:53 PM 82.0 °F 85.9 °F 70.0 °F 67% 29.77 in 10.0 mi SW 4.6 mph - N/A   Partly Cloudy
7:34 PM 80.6 °F 83.9 °F 69.8 °F 70% 29.78 in 10.0 mi SW 5.8 mph - N/A Thunderstorm Partly Cloudy
7:53 PM 75.9 °F - 72.0 °F 87% 29.81 in 1.5 mi West 25.3 mph 42.6 mph 0.19 in Rain , Thunderstorm Light Thunderstorms and Rain
7:56 PM 71.6 °F - 68.0 °F 88% 29.86 in 0.5 mi WNW 19.6 mph 43.7 mph 0.32 in Fog , Rain , Thunderstorm Heavy Thunderstorms and Rain
8:05 PM 69.8 °F - 64.4 °F 83% 29.83 in 0.5 mi WSW 11.5 mph 34.5 mph 0.57 in Rain , Thunderstorm Heavy Thunderstorms and Rain
8:10 PM 71.6 °F - 64.4 °F 78% 29.80 in 2.0 mi SW 17.3 mph 25.3 mph 0.59 in Rain , Thunderstorm Thunderstorms and Rain
8:12 PM 71.6 °F - 64.4 °F 78% 29.79 in 3.0 mi SW 17.3 mph 25.3 mph 0.59 in Rain , Thunderstorm Thunderstorms and Rain
8:41 PM 71.6 °F - 64.4 °F 78% 29.77 in 10.0 mi SW 6.9 mph - 0.61 in Rain Light Rain
8:53 PM 72.0 °F - 63.0 °F 73% 29.75 in 10.0 mi South 10.4 mph - 0.61 in   Partly Cloudy
9:53 PM 71.1 °F - 63.0 °F 75% 29.82 in 10.0 mi SW 6.9 mph - N/A   Scattered Clouds
10:53 PM 69.1 °F - 64.9 °F 87% 29.83 in 10.0 mi Variable 3.5 mph - 0.00 in Rain Light Rain
11:53 PM 71.1 °F - 62.1 °F 73% 29.83 in 10.0 mi SSW 4.6 mph - 0.00 in   Partly Cloudy